Location: El Bakhil
(32.7726°N, 5.5387°W)
Time: 01:18:22
(UTC+00:00)

N. Korean satellite - Pass Details

Date: 05 December 2021
Orbit: 447 x 491 km, 97.3° (Epoch: 24 January)

Event Time Altitude Azimuth Distance (km) Brightness Sun altitude
Rises 05:59:59 0° 359° (N) 2,452 10.0 -14.5°
Reaches altitude 10° 06:02:09 10° 349° (NNW) 1,575 8.9 -14.0°
Maximum altitude 06:05:09 31° 286° (WNW) 818 7.1 -13.4°
Drops below altitude 10° 06:08:09 10° 222° (SW) 1,569 8.9 -12.8°
Sets 06:10:18 0° 212° (SSW) 2,439 10.0 -12.4°
